This is the latest recevied weather packets stored in our database for station/object K9MWD. If no packets are shown the sender has not sent any weather packets the latest 10 day(s).
| Time | Temp. | Humidity | Pressure | Rain* | Wind** | Luminosity | Snow |
|---|---|---|---|---|---|---|---|
| 1777599898 | 16.11° C | 85% | 1014.8 hPa | 0 mm | - | 0 W/m² | - |
| 1777599595 | 16.11° C | 85% | 1014.6 hPa | 0 mm | - | 0 W/m² | - |
| 1777599292 | 16.11° C | 85% | 1014.5 hPa | 0 mm | - | 0 W/m² | - |
| 1777598988 | 16.11° C | 84% | 1014.3 hPa | 0 mm | - | 0 W/m² | - |
| 1777598685 | 16.11° C | 84% | 1014.4 hPa | 0 mm | - | 0 W/m² | - |
| 1777598381 | 16.11° C | 84% | 1014.5 hPa | 0 mm | - | 0 W/m² | - |
| 1777598080 | 16.11° C | 84% | 1014.3 hPa | 0 mm | - | 0 W/m² | - |
| 1777597779 | 16.11° C | 84% | 1014.1 hPa | 0 mm | - | 1 W/m² | - |
| 1777597474 | 16.67° C | 84% | 1014 hPa | 0 mm | - | 2 W/m² | - |
| 1777597170 | 16.67° C | 84% | 1014.1 hPa | 0 mm | - | 3 W/m² | - |
| 1777596866 | 16.67° C | 84% | 1014 hPa | 0 mm | - | 6 W/m² | - |
| 1777596562 | 16.67° C | 84% | 1014.2 hPa | 0 mm | - | 9 W/m² | - |
| 1777596259 | 16.67° C | 83% | 1014.3 hPa | 0 mm | - | 12 W/m² | - |
| 1777595957 | 16.67° C | 83% | 1013.9 hPa | 0 mm | - | 20 W/m² | - |
| 1777595657 | 16.67° C | 84% | 1014.1 hPa | 0 mm | - | 18 W/m² | - |
| 1777595352 | 16.67° C | 84% | 1013.8 hPa | 0 mm | - | 28 W/m² | - |
| 1777595049 | 16.67° C | 84% | 1013.7 hPa | 0 mm | - | 26 W/m² | - |
| 1777594746 | 16.67° C | 84% | 1013.7 hPa | 0 mm | - | 19 W/m² | - |
| 1777594442 | 16.67° C | 83% | 1013.6 hPa | 0 mm | - | 31 W/m² | - |
| 1777594137 | 16.67° C | 83% | 1013.5 hPa | 0 mm | - | 67 W/m² | - |
| 1777593834 | 16.67° C | 83% | 1013.7 hPa | 0 mm | - | 84 W/m² | - |
| 1777593531 | 16.67° C | 83% | 1013.5 hPa | 0 mm | - | 76 W/m² | - |
| 1777593224 | 16.67° C | 83% | 1013.5 hPa | 0 mm | - | 53 W/m² | - |
| 1777592924 | 16.67° C | 84% | 1013.4 hPa | 0 mm | - | 52 W/m² | - |
| 1777592620 | 16.11° C | 84% | 1013.7 hPa | 0 mm | - | 67 W/m² | - |
* Rain latest hour (hover to see other rain measurements)
** Current wind speed in m/s (hover to see current wind gust speed)